Weather History for CYXX - May, 2014

Change the Weather History Date:

Monday, May 5, 2014

  Actual Average Record
Temperature  
Mean Temperature 52 °F -  
Max Temperature 59 °F 64 °F 86 °F (2013)
Min Temperature 46 °F 45 °F 41 °F (1999)
Degree Days  
Heating Degree Days 12    
Growing Degree Days 2 (Base 50)    
Moisture  
Dew Point 47 °F    
Average Humidity 90    
Maximum Humidity 100    
Minimum Humidity 58    
Precipitation  
Precipitation 0.43 in 0.11 in - ()
Sea Level Pressure  
Sea Level Pressure 29.96 in    
Wind  
Wind Speed 5 mph ()    
Max Wind Speed 12 mph    
Max Gust Speed -    
Visibility 9.4 miles    
Events Rain    
Averages and records for this station are not official NWS values.
T = Trace of Precipitation, MM = Missing Value Source: Averaged Metar Reports

Daily Weather History Graph

Daily Weather History Graph

Search for Another Location

Airport or City:

Trip Planner

Search our weather history database for the weather conditions in past years. The results will help you decide how hot, cold, wet, or windy it might be!

Date:

Astronomy

May. 05, 2014 Rise Set
Actual Time 5:41 AM PDT 8:31 PM PDT
Civil Twilight 5:05 AM PDT 9:08 PM PDT
Nautical Twilight 4:18 AM PDT 9:55 PM PDT
Astronomical Twilight 3:22 AM PDT 10:51 PM PDT
Moon 11:08 AM PDT (5/5) 1:17 AM PDT (5/5)
Length of Visible Light 16h 02m
Length of Day
14h 49m
Waxing Crescent, 37% of the Moon is Illuminated
May 5
Waxing Crescent
May 6
First Quarter
May 14
Full
May 21
Last Quarter
May 28
New

Hourly Weather History & Observations

Time (PDT) Temp. Windchill Dew Point Humidity Pressure Visibility Wind Dir Wind Speed Gust Speed Precip Events Conditions
12:00 AM 46.4 °F 44.3 °F 46.4 °F 100% 29.86 in 6.0 mi NE 4.6 mph - N/A Rain Light Rain Showers
1:00 AM 46.4 °F 42.9 °F 46.4 °F 100% 29.87 in 6.0 mi NE 6.9 mph - N/A Rain Light Rain Showers
2:00 AM 46.4 °F 43.5 °F 46.4 °F 100% 29.88 in 6.0 mi NNE 5.8 mph - N/A Rain Light Rain Showers
3:00 AM 46.4 °F 43.5 °F 46.4 °F 100% 29.88 in 8.0 mi NNE 5.8 mph - N/A Rain Light Rain Showers
4:00 AM 46.4 °F 43.5 °F 46.4 °F 100% 29.89 in 10.0 mi NNE 5.8 mph - N/A Rain Light Rain Showers
5:00 AM 47 °F - 47 °F 98% 29.90 in 10 mi NNE 5.8 mph - - Rain Light Rain Showers
5:00 AM 46.4 °F 44.3 °F 46.4 °F 100% 29.90 in 10.0 mi NNE 4.6 mph - N/A Rain Light Rain Showers
6:00 AM 46.4 °F 44.3 °F 46.4 °F 100% 29.91 in 10.0 mi NE 4.6 mph - N/A Rain Rain
6:34 AM 46.4 °F 42.9 °F 46.4 °F 100% 29.92 in 10.0 mi NNE 6.9 mph - N/A Rain Light Rain
7:00 AM 46.4 °F 42.4 °F 46.4 °F 100% 29.93 in 8.0 mi NNE 8.1 mph - N/A Rain Light Rain
7:11 AM 46.4 °F 43.5 °F 46.4 °F 100% 29.93 in 1.5 mi NNE 5.8 mph - N/A Rain Light Rain
7:19 AM 46.4 °F 44.3 °F 46.4 °F 100% 29.94 in 1.8 mi NNE 4.6 mph - N/A Rain Rain
8:00 AM 46.4 °F 43.5 °F 46.4 °F 100% 29.95 in 5.0 mi NE 5.8 mph - N/A Rain Light Rain
9:00 AM 48.2 °F - 48.2 °F 100% 29.96 in 8.0 mi NE 3.5 mph - N/A Rain Light Rain
10:00 AM 48.2 °F - 46.4 °F 93% 29.97 in 6.0 mi NE 4.6 mph - N/A Rain Light Rain
10:29 AM 48.2 °F - 48.2 °F 100% 29.98 in 2.5 mi NNE 3.5 mph - N/A Rain Light Rain
10:46 AM 48.2 °F - 48.2 °F 100% 29.98 in 5.0 mi NE 5.8 mph - N/A Rain Light Rain
11:00 AM 49 °F - 48 °F 94% 29.99 in 7 mi NNE 4.6 mph - - Rain Light Rain
11:00 AM 48.2 °F - 48.2 °F 100% 29.99 in 7.0 mi North 4.6 mph - N/A Rain Light Rain
11:22 AM 50.0 °F - 48.2 °F 94% 29.99 in 7.0 mi North 5.8 mph - N/A   Light Drizzle
12:00 PM 50.0 °F - 48.2 °F 94% 29.99 in 7.0 mi North 3.5 mph - N/A   Light Drizzle
1:00 PM 51.8 °F - 48.2 °F 88% 30.00 in 10.0 mi Variable 2.3 mph - N/A   Overcast
1:24 PM 53.6 °F - 48.2 °F 82% 30.00 in 15.0 mi Calm Calm - N/A   Mostly Cloudy
2:00 PM 55.4 °F - 50.0 °F 82% 29.99 in 15.0 mi WSW 4.6 mph - N/A   Mostly Cloudy
3:00 PM 55.4 °F - 50.0 °F 82% 29.99 in 15.0 mi SW 6.9 mph - N/A   Mostly Cloudy
4:00 PM 57.2 °F - 50.0 °F 77% 29.98 in 15.0 mi SSW 5.8 mph - N/A   Scattered Clouds
5:00 PM 58 °F - 47 °F 58% 29.98 in 19 mi SW 8.1 mph - -   Partly Cloudy
5:00 PM 57.2 °F - 46.4 °F 67% 29.98 in 20.0 mi SW 6.9 mph - N/A   Mostly Cloudy
6:00 PM 59.0 °F - 48.2 °F 67% 29.98 in 20.0 mi SW 11.5 mph - N/A   Scattered Clouds
7:00 PM 57.2 °F - 46.4 °F 67% 29.99 in 25.0 mi SW 11.5 mph - N/A   Mostly Cloudy
8:00 PM 53.6 °F - 48.2 °F 82% 29.99 in 25.0 mi SSW 6.9 mph - N/A   Mostly Cloudy
9:00 PM 53.6 °F - 48.2 °F 82% 30.00 in 25.0 mi SSE 2.3 mph - N/A   Scattered Clouds
10:00 PM 51.8 °F - 48.2 °F 88% 30.01 in 10.0 mi SW 4.6 mph - N/A   Mostly Cloudy
11:00 PM 51 °F - 47 °F 82% 30.01 in 10 mi SSW 4.6 mph - -   Mostly Cloudy
11:00 PM 51.8 °F - 46.4 °F 82% 30.01 in 10.0 mi SW 4.6 mph - N/A   Mostly Cloudy